When you browse on this site, cookies collect data to enhance your experience and personalize the content and advertising you see.
Visit our Privacy Policy to learn more. By continuing to use the site, you agree to this use of cookies and data.
  • En España
  • Lista de países
  • Para 7 días
  • Temperatura del agua
  • El tiempo en el mapa
  • Informadores
  • user-avatar
    Iniciar sesión

    Tiempo cada hora Lejriya

    Hoy, 4 Junio, Jueves

    Tiempo Temperatura Precipitaciones Viento Presión Humedad
    00:00 +16°C° 0.1 mm 1 mps 750 mmHg 98%
    01:00 +16°C° 0.1 mm 1 mps 750 mmHg 98%
    02:00 +16°C° 0.1 mm 1 mps 750 mmHg 98%
    03:00 +16°C° 0 mm 1 mps 749 mmHg 97%
    04:00 +16°C° 0 mm 1 mps 749 mmHg 97%
    05:00 +18°C° 0 mm 1 mps 749 mmHg 96%
    06:00 +18°C° 0 mm 2 mps 750 mmHg 89%
    07:00 +20°C° 0 mm 2 mps 750 mmHg 82%
    08:00 +21°C° 0 mm 3 mps 750 mmHg 75%
    09:00 +22°C° 0 mm 3 mps 750 mmHg 68%
    10:00 +23°C° 0 mm 4 mps 751 mmHg 60%
    11:00 +25°C° 0 mm 5 mps 751 mmHg 52%
    12:00 +25°C° 0 mm 5 mps 751 mmHg 49%
    13:00 +25°C° 0 mm 5 mps 750 mmHg 47%
    14:00 +24°C° 0 mm 6 mps 750 mmHg 45%
    15:00 +23°C° 0 mm 6 mps 750 mmHg 51%
    16:00 +22°C° 0 mm 6 mps 750 mmHg 58%
    17:00 +21°C° 0 mm 5 mps 750 mmHg 64%
    18:00 +19°C° 0 mm 5 mps 751 mmHg 72%
    19:00 +17°C° 0 mm 4 mps 752 mmHg 80%
    20:00 +14°C° 0 mm 4 mps 752 mmHg 88%
    21:00 +14°C° 0 mm 3 mps 753 mmHg 90%
    22:00 +13°C° 0 mm 3 mps 753 mmHg 92%
    23:00 +13°C° 0 mm 3 mps 753 mmHg 94%

    Mañana, 5 Junio, Viernes

    Tiempo Temperatura Precipitaciones Viento Presión Humedad
    00:00 +13°C° 0 mm 3 mps 753 mmHg 95%
    01:00 +14°C° 0 mm 2 mps 753 mmHg 95%
    02:00 +14°C° 0 mm 2 mps 752 mmHg 96%
    03:00 +13°C° 0 mm 3 mps 752 mmHg 95%
    04:00 +14°C° 0 mm 3 mps 752 mmHg 95%
    05:00 +14°C° 0 mm 3 mps 752 mmHg 94%
    06:00 +17°C° 0 mm 3 mps 753 mmHg 85%
    07:00 +19°C° 0 mm 3 mps 753 mmHg 75%
    08:00 +21°C° 0 mm 3 mps 753 mmHg 66%
    09:00 +22°C° 0 mm 3 mps 753 mmHg 62%
    10:00 +23°C° 0 mm 4 mps 753 mmHg 58%
    11:00 +25°C° 0 mm 4 mps 753 mmHg 54%
    12:00 +23°C° 0 mm 4 mps 753 mmHg 54%
    13:00 +23°C° 0 mm 5 mps 753 mmHg 54%
    14:00 +23°C° 0 mm 5 mps 753 mmHg 54%
    15:00 +22°C° 0 mm 5 mps 752 mmHg 60%
    16:00 +21°C° 0 mm 5 mps 752 mmHg 65%
    17:00 +20°C° 0 mm 5 mps 752 mmHg 70%
    18:00 +18°C° 0 mm 4 mps 752 mmHg 78%
    19:00 +17°C° 0 mm 3 mps 753 mmHg 85%
    20:00 +14°C° 0 mm 3 mps 753 mmHg 93%
    21:00 +14°C° 0 mm 3 mps 753 mmHg 91%
    22:00 +16°C° 0 mm 3 mps 753 mmHg 89%
    23:00 +16°C° 0 mm 3 mps 753 mmHg 87%

    Pasado mañana, 6 Junio, Sábado

    Tiempo Temperatura Precipitaciones Viento Presión Humedad
    00:00 +16°C° 0 mm 3 mps 753 mmHg 86%
    01:00 +16°C° 0 mm 3 mps 753 mmHg 85%
    02:00 +17°C° 0 mm 3 mps 753 mmHg 84%
    03:00 +17°C° 0 mm 3 mps 752 mmHg 85%
    04:00 +17°C° 0 mm 3 mps 752 mmHg 86%
    05:00 +17°C° 0 mm 3 mps 752 mmHg 87%
    06:00 +18°C° 0 mm 3 mps 752 mmHg 83%
    07:00 +18°C° 0 mm 3 mps 753 mmHg 80%
    08:00 +19°C° 0 mm 3 mps 753 mmHg 76%
    09:00 +20°C° 0 mm 3 mps 753 mmHg 73%
    10:00 +20°C° 0 mm 3 mps 753 mmHg 71%
    11:00 +21°C° 0 mm 3 mps 752 mmHg 68%
    12:00 +21°C° 0 mm 3 mps 752 mmHg 65%
    13:00 +22°C° 0 mm 4 mps 752 mmHg 63%
    14:00 +22°C° 0 mm 4 mps 751 mmHg 61%
    15:00 +22°C° 0 mm 4 mps 751 mmHg 64%
    16:00 +21°C° 0 mm 4 mps 751 mmHg 67%
    17:00 +20°C° 0 mm 5 mps 751 mmHg 70%
    18:00 +19°C° 0 mm 4 mps 751 mmHg 76%
    19:00 +17°C° 0 mm 4 mps 752 mmHg 82%
    20:00 +16°C° 0 mm 3 mps 752 mmHg 88%
    21:00 +16°C° 0 mm 3 mps 752 mmHg 90%
    22:00 +14°C° 0 mm 3 mps 752 mmHg 92%
    23:00 +14°C° 0 mm 3 mps 752 mmHg 93%

    7 Junio, Domingo

    Tiempo Temperatura Precipitaciones Viento Presión Humedad
    00:00 +14°C° 0 mm 3 mps 752 mmHg 94%
    01:00 +13°C° 0 mm 3 mps 752 mmHg 95%
    02:00 +14°C° 0 mm 2 mps 752 mmHg 96%
    03:00 +13°C° 0 mm 3 mps 752 mmHg 95%
    04:00 +14°C° 0 mm 3 mps 752 mmHg 94%
    05:00 +14°C° 0 mm 3 mps 752 mmHg 93%
    06:00 +17°C° 0 mm 3 mps 752 mmHg 85%
    07:00 +18°C° 0 mm 4 mps 752 mmHg 77%
    08:00 +20°C° 0 mm 4 mps 753 mmHg 69%
    09:00 +20°C° 0 mm 5 mps 753 mmHg 66%
    10:00 +21°C° 0 mm 5 mps 753 mmHg 62%
    11:00 +22°C° 0 mm 5 mps 753 mmHg 59%
    12:00 +22°C° 0 mm 5 mps 753 mmHg 58%
    13:00 +22°C° 0 mm 6 mps 753 mmHg 57%
    14:00 +22°C° 0 mm 6 mps 752 mmHg 56%
    15:00 +21°C° 0 mm 6 mps 752 mmHg 60%
    16:00 +20°C° 0 mm 6 mps 753 mmHg 64%
    17:00 +19°C° 0 mm 6 mps 753 mmHg 68%
    18:00 +16°C° 0 mm 5 mps 753 mmHg 74%
    19:00 +15°C° 0 mm 5 mps 753 mmHg 80%
    20:00 +14°C° 0 mm 4 mps 754 mmHg 86%
    21:00 +13°C° 0 mm 4 mps 754 mmHg 87%
    22:00 +13°C° 0 mm 4 mps 754 mmHg 88%
    23:00 +13°C° 0 mm 4 mps 754 mmHg 89%

    8 Junio, Lunes

    Tiempo Temperatura Precipitaciones Viento Presión Humedad
    00:00 +13°C° 0 mm 4 mps 753 mmHg 90%
    01:00 +12°C° 0 mm 4 mps 753 mmHg 91%
    02:00 +12°C° 0 mm 3 mps 753 mmHg 93%
    03:00 +12°C° 0 mm 3 mps 753 mmHg 93%
    04:00 +12°C° 0 mm 3 mps 753 mmHg 93%
    05:00 +13°C° 0 mm 3 mps 753 mmHg 93%
    06:00 +15°C° 0 mm 4 mps 753 mmHg 82%
    07:00 +18°C° 0 mm 4 mps 754 mmHg 71%
    08:00 +20°C° 0 mm 4 mps 754 mmHg 61%
    09:00 +21°C° 0 mm 5 mps 754 mmHg 57%
    10:00 +22°C° 0 mm 5 mps 754 mmHg 53%
    11:00 +24°C° 0 mm 6 mps 754 mmHg 49%
    12:00 +23°C° 0 mm 6 mps 753 mmHg 50%
    13:00 +23°C° 0 mm 6 mps 753 mmHg 51%
    14:00 +22°C° 0 mm 7 mps 753 mmHg 51%
    15:00 +22°C° 0 mm 7 mps 753 mmHg 55%
    16:00 +21°C° 0 mm 6 mps 753 mmHg 59%
    17:00 +20°C° 0 mm 6 mps 753 mmHg 63%
    18:00 +17°C° 0 mm 6 mps 753 mmHg 70%
    19:00 +16°C° 0 mm 5 mps 753 mmHg 78%
    20:00 +14°C° 0 mm 4 mps 753 mmHg 85%
    21:00 +14°C° 0 mm 4 mps 753 mmHg 88%
    22:00 +14°C° 0 mm 3 mps 753 mmHg 90%
    23:00 +14°C° 0 mm 3 mps 753 mmHg 92%

    9 Junio, Martes

    Tiempo Temperatura Precipitaciones Viento Presión Humedad
    00:00 +13°C° 0 mm 3 mps 753 mmHg 93%
    01:00 +14°C° 0 mm 2 mps 753 mmHg 93%
    02:00 +14°C° 0 mm 2 mps 753 mmHg 94%
    03:00 +14°C° 0 mm 2 mps 753 mmHg 92%
    04:00 +14°C° 0 mm 2 mps 753 mmHg 90%
    05:00 +15°C° 0 mm 2 mps 753 mmHg 88%
    06:00 +18°C° 0 mm 2 mps 753 mmHg 73%
    07:00 +21°C° 0 mm 2 mps 754 mmHg 58%
    08:00 +25°C° 0 mm 2 mps 754 mmHg 44%
    09:00 +27°C° 0 mm 2 mps 754 mmHg 40%
    10:00 +29°C° 0 mm 2 mps 754 mmHg 37%
    11:00 +30°C° 0 mm 3 mps 754 mmHg 33%
    12:00 +30°C° 0 mm 3 mps 754 mmHg 35%
    13:00 +29°C° 0 mm 4 mps 753 mmHg 36%
    14:00 +29°C° 0 mm 4 mps 753 mmHg 38%
    15:00 +28°C° 0 mm 4 mps 753 mmHg 41%
    16:00 +27°C° 0 mm 4 mps 753 mmHg 44%
    17:00 +25°C° 0 mm 4 mps 753 mmHg 48%
    18:00 +22°C° 0 mm 4 mps 753 mmHg 55%
    19:00 +20°C° 0 mm 3 mps 753 mmHg 61%
    20:00 +18°C° 0 mm 2 mps 754 mmHg 68%
    21:00 +18°C° 0 mm 2 mps 754 mmHg 69%
    22:00 +17°C° 0 mm 2 mps 754 mmHg 69%
    23:00 +17°C° 0 mm 2 mps 754 mmHg 69%
    Mostrar más